Flag for Germany Weather past 2 weeks in Dillenburg, Hesse, Germany

Now
54 °F

Partly sunny.


Feels Like: 50 °F
Forecast: 47 / 61 °F
Wind: 10 mph from Southwest

Location: Hessen

Current Time: Apr 25, 2015 at 2:52:16 PM

Latest Report: Apr 25, 2015 at 1:50 PM


Visibility: N/A

Pressure: 29.80 "Hg

Humidity: 88%

Dew point: 50 °F

Location of DillenburgLocation

Historic Weather in Dillenburg — Graph

°F

Dillenburg temperature yesterday

Maximum temperature yesterday: 66 °F (at 5:50 PM)
Minimum temperature yesterday: 46 °F (at 2:20 AM)
Average temperature yesterday: 58 °F

Past Weeks' High & Low Weather Summary

 TemperatureHumidityPressure
High70 °F (Apr 15, 3:50 PM)100% (Apr 13, 8:50 AM)30.42 "Hg (Apr 13, 8:50 AM)
Low37 °F (Apr 12, 7:20 AM)30% (Apr 21, 1:20 PM)29.80 "Hg (Apr 25, 7:50 AM)
Average54 °F55%30.16 "Hg
* Reported Apr 10 1:20 PM — Apr 25 1:20 PM, Dillenburg, Weather by CustomWeather, © 2015

Note: Actual official high and low records may vary slightly from our data, if they occured in-between our weather recording intervals... More about our weather records

Advertising

Dillenburg weather history for previous 24 hours

 ConditionsComfort  
Time TempWeatherWind HumidityBarometerVisibility
1:20 PM
Sat, Apr 25
52 °FPartly sunny.7 mph94%29.80 "HgN/A
12:50 PM52 °FLight rain. Broken clouds.10 mph94%29.80 "HgN/A
12:20 PM52 °FLight rain. Broken clouds.12 mph100%29.83 "HgN/A
11:50 AM52 °FLight rain. Broken clouds.13 mph94%29.83 "Hg5 mi
11:20 AM52 °FDrizzle. Partly sunny.14 mph94%29.83 "Hg4 mi
10:50 AM52 °FRain. Mostly cloudy.9 mph88%29.83 "Hg5 mi
10:20 AM54 °FLight rain. Partly sunny.12 mph82%29.83 "HgN/A
9:50 AM54 °FLight rain. Broken clouds.10 mph77%29.83 "HgN/A
9:20 AM54 °FPartly sunny.6 mph77%29.83 "HgN/A
8:50 AM54 °FPassing clouds.7 mph72%29.80 "HgN/A
8:20 AM54 °FPassing clouds.9 mph63%29.80 "HgN/A
7:50 AM54 °FSunny.9 mph63%29.80 "Hg10 mi
9:50 PM
Fri, Apr 24
57 °FClear.5 mph41%29.89 "Hg10 mi
9:20 PM59 °FPassing clouds.5 mph39%29.89 "HgN/A
8:50 PM59 °FSunny.3 mph42%29.89 "Hg10 mi
8:20 PM61 °FSunny.5 mph39%29.89 "Hg10 mi
7:50 PM63 °FSunny.7 mph37%29.89 "Hg10 mi
7:20 PM63 °FPassing clouds.6 mph37%29.89 "HgN/A
6:50 PM64 °FPassing clouds.9 mph34%29.89 "HgN/A
6:20 PM66 °FPassing clouds.10 mph32%29.89 "HgN/A
5:50 PM66 °FPassing clouds.9 mph35%29.89 "HgN/A
5:20 PM64 °FSunny.7 mph37%29.89 "Hg10 mi
4:50 PM64 °FPassing clouds.8 mph34%29.89 "HgN/A
4:20 PM64 °FPassing clouds.13 mph37%29.92 "HgN/A
3:50 PM64 °FPassing clouds.12 mph32%29.92 "HgN/A
3:20 PM63 °FPassing clouds.12 mph34%29.92 "HgN/A
2:50 PM64 °FPassing clouds.10 mph32%29.92 "HgN/A
2:20 PM63 °FPassing clouds.12 mph37%29.92 "HgN/A
Weather by CustomWeather, © 2015

See weather overviewHow to use our weather pages